#timestamp,LO_Frequency,Hit 
1498302015.2,286046993.6,N
1498302035.0,286046994.7,N
1498302035.9,286046994.7,N
1498302055.7,286046993.5,N
1498302075.6,286046991.7,N
1498302095.4,286046992.5,N
1498302115.2,286046992.5,N
1498302135.1,286046992.6,N
1498302136.0,286046992.6,N
1498302155.8,286046992.3,N
1498302175.6,286046992.9,N
1498302195.5,286046991.9,N
1498302215.3,286046990.5,N
1498302235.1,286046992.9,N
1498302255.8,286046990.2,N
1498302275.7,286046990.5,N
1498302295.5,286046990.3,N
1498302315.3,286046991.5,N
1498302335.2,286046988.5,N
1498302355.0,286046989.2,N
1498302355.9,286046989.2,N
1498302375.7,286046990.0,N
1498302395.6,286046989.8,N
1498302415.4,286046987.2,N
1498302435.2,286046987.8,N
1498302455.1,286046985.3,Y
1498302456.0,286046985.3,Y
1498302475.8,286047006.9,N
1498302495.6,286047007.2,N
1498302515.5,286047007.1,N
1498302535.3,286047007.5,N
1498302555.1,286047005.1,N
1498302575.9,286047005.2,N
1498302595.7,286047003.0,N
1498302615.5,286047003.4,N
1498302635.4,286047006.0,N
1498302655.2,286047005.6,N
1498302675.0,286047003.0,N
1498302675.9,286047003.0,N
1498302695.8,286047005.8,N
1498302715.6,286047005.6,N
1498302735.4,286047006.0,N
1498302755.2,286047004.0,N
1498302775.1,286047004.2,N
1498302776.0,286047004.2,N
1498302795.8,286047003.1,N
1498302815.6,286047004.1,N
1498302835.5,286047004.3,N
1498302855.3,286047004.2,N
1498302875.1,286047001.3,N
1498302895.9,286047001.4,N
1498302915.7,286047002.6,N
1498302935.5,286047000.3,N
1498302955.4,286047001.6,N
1498302975.2,286047004.3,N
1498302995.0,286047002.0,N
1498302995.9,286047002.0,N
1498303015.8,286047002.1,N
1498303035.6,286047002.5,N
1498303055.4,286047001.2,N
1498303075.2,286046998.4,N
1498303095.1,286046999.1,N
1498303096.0,286046999.1,N
1498303115.8,286046999.4,N
1498303135.6,286046999.2,N
1498303155.5,286046999.2,N
1498303175.3,286046996.7,N
1498303195.1,286046996.8,N
1498303215.9,286046997.5,N
1498303235.7,286046997.6,N
1498303255.5,286046997.1,N
1498303275.4,286046997.4,N
1498303295.2,286046996.9,N
1498303315.0,286046996.8,N
1498303315.9,286046996.8,N
1498303335.8,286046996.7,N
1498303355.6,286046997.4,N
1498303375.4,286046997.4,N
1498303395.2,286046994.9,N
1498303415.1,286046996.2,N
1498303416.0,286046996.2,N
1498303435.8,286046993.3,N
1498303455.6,286046993.5,N
1498303475.5,286046994.1,N
1498303495.3,286046994.3,N
1498303515.1,286046993.5,N
1498303535.9,286046994.2,N
1498303555.7,286046994.3,N
1498303575.5,286046994.6,N
1498303595.4,286046994.6,N
1498303615.2,286046994.6,N
1498303635.0,286046991.7,N
1498303635.9,286046991.7,N
1498303655.8,286046993.0,N
1498303675.6,286046990.6,N
1498303695.4,286046990.9,N
1498303715.3,286046988.8,N
1498303735.1,286046988.6,N
1498303736.0,286046988.6,N
1498303755.8,286046988.9,N
1498303775.6,286046991.3,N
1498303795.5,286046991.6,N
1498303815.3,286046991.0,N
1498303835.1,286046988.7,N
1498303855.9,286046988.7,N
1498303875.7,286046989.4,N
1498303895.5,286046989.9,N
1498303915.4,286046989.3,N
1498303935.2,286046989.2,N
1498303955.0,286046988.5,N
1498303955.9,286046988.5,N
1498303975.8,286046987.0,N
1498303995.6,286046987.7,N
1498304015.4,286046988.2,N
1498304035.2,286046988.4,N
1498304055.1,286046986.2,N
1498304056.0,286046986.2,N
1498304075.8,286046985.6,N
1498304095.6,286046986.5,N
1498304115.5,286046986.6,N
1498304135.3,286046984.0,N
1498304155.1,286046984.5,N
1498304175.9,286046983.8,N
1498304195.7,286046984.1,N
1498304215.5,286046984.6,N
1498304235.4,286046984.4,N
1498304255.2,286046984.7,N
1498304275.0,286046985.2,N
1498304275.9,286046985.2,N
1498304295.8,286046984.6,N
1498304315.6,286046983.7,N
1498304335.4,286046982.5,Y
1498304355.3,286046992.7,N
1498304375.1,286046992.8,N
1498304376.0,286046992.8,N
1498304395.8,286046990.7,N
1498304415.7,286046990.4,N
1498304435.5,286046993.1,N
1498304455.3,286046992.9,N
1498304475.1,286046990.4,N
1498304495.9,286046990.9,N
1498304515.7,286046989.1,N
1498304535.5,286046991.2,N
1498304555.4,286046991.2,N
1498304575.2,286046991.2,N
1498304595.0,286046988.5,N
1498304595.9,286046988.5,N
1498304615.8,286046989.6,N
1498304635.6,286046986.9,N
1498304655.4,286046987.4,N
1498304675.3,286046987.4,N
1498304695.1,286046987.4,N
1498304696.0,286046987.4,N
1498304715.8,286046987.5,N
1498304735.6,286046987.5,N
1498304755.5,286046988.3,N
1498304775.3,286046985.3,N
1498304795.1,286046985.4,N
1498304815.9,286046986.2,N
1498304835.7,286046985.7,N
1498304855.5,286046986.0,N
1498304875.4,286046988.4,N
1498304895.2,286046985.3,N
1498304915.0,286046986.0,N
1498304915.9,286046986.0,N
1498304935.8,286046984.1,N
1498304955.6,286046982.6,Y
1498304975.4,286046993.2,N
1498304995.3,286046992.3,N
1498305015.1,286046994.7,N
1498305016.0,286046994.7,N
1498305035.8,286046994.6,N
1498305055.7,286046993.7,N
1498305075.5,286046991.8,N
1498305095.3,286046992.6,N
1498305115.1,286046992.9,N
1498305135.9,286046992.6,N
1498305155.7,286046992.7,N
1498305175.5,286046991.4,N
1498305195.4,286046991.3,N
1498305215.2,286046989.0,N
1498305235.0,286046989.0,N
1498305235.9,286046989.0,N
1498305255.8,286046988.9,N
1498305275.6,286046989.4,N
1498305295.4,286046989.8,N
1498305315.3,286046987.0,N
1498305335.1,286046987.1,N
1498305336.0,286046987.1,N
1498305355.8,286046987.7,N
1498305375.7,286046987.1,N
1498305395.5,286046989.9,N
1498305415.3,286046987.2,N
1498305435.1,286046989.4,N
1498305455.9,286046989.8,N
1498305475.7,286046986.9,N
1498305495.5,286046987.7,N
1498305515.4,286046988.2,N
1498305535.2,286046985.4,N
1498305555.0,286046986.6,N
1498305555.9,286046986.6,N
1498305575.8,286046983.8,N
1498305595.6,286046986.7,N
